Weather reports worldwide

Advertisment
Boston/Logan Int., United States of America (72509): temperature & dewpoint: 07.12.2019 21:00:00 - 13.12.2019 21:00:00 (EST)Boston/Logan Int., United States of America (72509): wind speed & gusts: 07.12.2019 21:00:00 - 13.12.2019 21:00:00 (EST)Boston/Logan Int., United States of America (72509): wind direction: 07.12.2019 21:00:00 - 13.12.2019 21:00:00 (EST)Boston/Logan Int., United States of America (72509): reduced air pressure: 07.12.2019 21:00:00 - 13.12.2019 21:00:00 (EST)Boston/Logan Int., United States of America (72509): visibility: 07.12.2019 21:00:00 - 13.12.2019 21:00:00 (EST)Boston/Logan Int., United States of America (72509): precipitation: 07.12.2019 21:00:00 - 13.12.2019 21:00:00 (EST)
Date & Time tt [°C] td [°C] ff [km/h] ff [kn] fx [km/h] fx [kn] dd ppp [hPa] vv [km] rr [mm]
13.12.2019 21:00:00 7,2 5,0 11 6 - - E 1023,4 8 0,3
13.12.2019 20:00:00 7,2 5,0 8 4 - - E 1024,7 8 1,0
13.12.2019 19:00:00 7,2 5,0 0 0 - - N 1025,7 10 0,5
13.12.2019 18:00:00 7,2 4,4 11 6 - - ESE 1026,1 13 0,0
13.12.2019 17:00:00 6,7 3,9 11 6 - - ESE 1027,2 16 -
13.12.2019 16:00:00 6,7 2,8 11 6 - - E 1027,6 16 0,0
13.12.2019 15:00:00 5,6 1,7 13 7 - - ESE 1028,1 16 -
13.12.2019 14:00:00 5,6 1,1 13 7 - - ESE 1028,9 16 -
13.12.2019 13:00:00 5,0 0,6 11 6 - - ESE 1030,0 16 0,0
13.12.2019 12:00:00 5,0 -0,6 9 5 - - ESE 1030,9 16 -
13.12.2019 11:00:00 3,9 -1,1 8 4 - - SSE 1032,4 16 -
13.12.2019 10:00:00 3,3 -1,7 11 6 - - SE 1033,2 16 0,0
13.12.2019 09:00:00 2,2 -2,2 9 5 - - SE 1033,6 16 -
13.12.2019 08:00:00 1,1 -3,3 16 9 - - S 1034,2 16 -
13.12.2019 07:00:00 0,6 -4,4 16 9 - - S 1034,5 16 0,0
13.12.2019 06:00:00 0,6 -4,4 15 8 - - SSE 1035,1 16 -
13.12.2019 05:00:00 -1,1 -6,1 16 9 - - SSE 1035,8 16 -
13.12.2019 04:00:00 -1,1 -6,7 16 9 - - SSE 1036,8 16 0,0
13.12.2019 03:00:00 -1,7 -7,8 9 5 - - S 1037,6 16 -
13.12.2019 02:00:00 -1,1 -7,8 15 8 - - S 1038,2 16 -
13.12.2019 01:00:00 -2,2 -8,3 11 6 - - S 1038,5 16 0,0
13.12.2019 00:00:00 -1,7 -7,8 15 8 - - S 1038,9 16 -
12.12.2019 23:00:00 -2,2 -8,3 13 7 - - S 1039,6 16 -
12.12.2019 22:00:00 -1,7 -8,3 13 7 - - S 1039,4 16 0,0
12.12.2019 21:00:00 -1,1 -8,3 13 7 - - S 1039,8 16 -
12.12.2019 20:00:00 -1,1 -8,9 11 6 - - S 1040,1 16 -
12.12.2019 19:00:00 -0,6 -10,0 11 6 - - SSW 1040,3 16 0,0
12.12.2019 18:00:00 0,0 -10,6 5 3 - - WSW 1040,0 16 -
12.12.2019 17:00:00 -0,6 -10,6 8 4 - - NW 1039,5 16 -
12.12.2019 16:00:00 0,0 -11,1 13 7 - - WNW 1039,4 16 0,0
12.12.2019 15:00:00 0,0 -11,7 15 8 - - W 1039,0 16 -
12.12.2019 14:00:00 0,0 -11,7 13 7 - - WNW 1038,9 16 -
12.12.2019 13:00:00 0,0 -12,2 18 10 - - WNW 1039,2 16 0,0
12.12.2019 12:00:00 -0,6 -12,2 15 8 - - WNW 1039,5 16 -
12.12.2019 11:00:00 -0,6 -12,8 13 7 - - WNW 1039,5 16 -
12.12.2019 10:00:00 -1,1 -12,8 18 10 - - NW 1040,2 16 0,0
12.12.2019 09:00:00 -2,2 -13,3 13 7 - - W 1039,4 16 -
12.12.2019 08:00:00 -2,8 -13,3 11 6 - - WNW 1038,9 16 -
12.12.2019 07:00:00 -3,3 -13,3 18 10 - - WNW 1037,7 16 0,0
12.12.2019 06:00:00 -2,8 -12,2 21 11 - - WNW 1036,3 16 -
12.12.2019 05:00:00 -2,8 -11,7 16 9 - - WNW 1034,9 16 -
12.12.2019 04:00:00 -2,2 -11,1 21 11 - - WNW 1033,2 16 0,0
12.12.2019 03:00:00 -1,7 -10,6 29 16 52 28 W 1031,9 16 -
12.12.2019 02:00:00 -1,1 -10,6 37 20 50 27 WNW 1030,8 16 -
12.12.2019 01:00:00 0,0 -8,9 29 16 - - W 1028,7 16 0,0
12.12.2019 00:00:00 0,0 -6,7 24 13 - - WNW 1027,7 16 -
11.12.2019 23:00:00 0,6 -5,6 24 13 - - W 1026,8 16 -
11.12.2019 22:00:00 0,0 -5,6 21 11 - - WSW 1026,0 16 0,0
11.12.2019 21:00:00 -0,6 -6,1 16 9 - - SW 1025,7 16 -
11.12.2019 20:00:00 0,0 -6,1 18 10 - - SW 1025,4 16 -
11.12.2019 19:00:00 0,6 -6,7 18 10 - - WSW 1025,1 16 0,0
11.12.2019 18:00:00 0,6 -6,7 16 9 - - WSW 1024,4 16 -
11.12.2019 17:00:00 1,1 -7,8 13 7 - - W 1023,9 16 -
11.12.2019 16:00:00 1,1 -6,7 18 10 - - WSW 1022,9 16 0,0
11.12.2019 15:00:00 1,7 -8,3 21 11 - - WSW 1022,5 16 -
11.12.2019 14:00:00 2,2 -6,7 13 7 - - WNW 1022,2 16 -
11.12.2019 13:00:00 1,1 -5,0 8 4 - - W 1022,3 16 -
11.12.2019 12:00:00 1,7 -3,9 13 7 - - W 1023,3 16 0,0
11.12.2019 11:00:00 0,6 -5,6 13 7 - - W 1023,8 11 0,0
11.12.2019 10:00:00 0,6 -2,8 13 7 - - SW 1024,4 3,2 0,0
11.12.2019 09:00:00 0,6 -2,8 9 5 - - WSW 1023,8 10 0,0
11.12.2019 08:00:00 0,6 -2,2 11 6 - - WNW 1023,3 1,6 1,0
11.12.2019 07:00:00 0,0 -2,8 18 10 - - W 1022,9 0,8 1,5
11.12.2019 06:00:00 0,6 -2,2 16 9 - - NW 1021,8 2,0 0,5
11.12.2019 05:00:00 1,1 -2,2 24 13 - - NW 1021,8 6 0,0
11.12.2019 04:00:00 1,1 -2,2 31 17 - - NW 1020,8 3,2 0,3
11.12.2019 03:00:00 2,2 -1,1 24 13 - - NW 1019,5 4,0 0,0
11.12.2019 02:00:00 3,9 0,6 22 12 - - NNW 1018,5 4,8 0,8
11.12.2019 01:00:00 5,0 1,1 13 7 - - WNW 1017,3 16 0,5
11.12.2019 00:00:00 5,6 1,7 18 10 - - NW 1016,9 15 0,8
10.12.2019 23:00:00 7,2 2,8 18 10 - - WNW 1015,9 16 0,5
10.12.2019 22:00:00 7,8 2,8 21 11 - - W 1015,1 16 0,3
10.12.2019 21:00:00 9,4 3,3 24 13 - - WNW 1013,6 16 0,0
10.12.2019 20:00:00 10,6 4,4 28 15 59 32 WNW 1012,8 16 0,0
10.12.2019 19:00:00 13,9 10,0 18 10 - - WSW 1010,1 16 0,3
10.12.2019 18:00:00 13,9 10,6 26 14 - - SW 1009,0 11 0,5
10.12.2019 17:00:00 14,4 11,1 22 12 - - SW 1007,4 16 0,3
10.12.2019 16:00:00 14,4 11,1 22 12 - - SW 1006,7 13 0,3
10.12.2019 15:00:00 15,0 11,1 26 14 - - SW 1006,8 11 0,8
10.12.2019 14:00:00 15,6 11,1 24 13 - - SW 1006,1 16 0,0
10.12.2019 13:00:00 16,7 10,6 26 14 - - WSW 1005,7 16 0,0
10.12.2019 12:00:00 17,2 11,1 28 15 - - SW 1005,6 16 -
10.12.2019 11:00:00 17,2 11,7 24 13 - - SW 1006,9 16 -
10.12.2019 10:00:00 16,1 11,1 29 16 - - SSW 1007,3 16 0,0
10.12.2019 09:00:00 15,6 11,1 34 18 - - SW 1007,0 16 -
10.12.2019 08:00:00 14,4 10,6 21 11 - - SW 1006,5 16 -
10.12.2019 07:00:00 14,4 10,6 22 12 - - SW 1006,6 16 -
10.12.2019 06:00:00 14,4 10,6 26 14 - - SW 1006,1 16 -
10.12.2019 05:00:00 14,4 11,1 29 16 - - SW 1005,6 16 -
10.12.2019 04:00:00 14,4 11,1 26 14 - - SW 1005,2 16 -
10.12.2019 03:00:00 15,0 11,7 31 17 - - SW 1005,1 16 0,3
10.12.2019 02:00:00 15,0 11,7 29 16 48 26 SSW 1004,8 16 0,5
10.12.2019 01:00:00 15,6 12,2 29 16 - - SW 1004,7 16 0,5
10.12.2019 00:00:00 15,6 12,2 28 15 54 29 SSW 1004,4 16 0,3
09.12.2019 23:00:00 15,6 12,2 39 21 54 29 SSW 1005,1 13 0,3
09.12.2019 22:00:00 15,0 12,2 31 17 - - S 1005,9 13 0,5
09.12.2019 21:00:00 13,3 11,1 18 10 - - S 1007,4 13 1,3
09.12.2019 20:00:00 13,3 10,6 21 11 - - S 1008,8 13 0,5
09.12.2019 19:00:00 13,3 10,6 21 11 - - S 1009,9 16 0,8
09.12.2019 18:00:00 13,3 10,6 24 13 - - S 1011,1 13 0,3
09.12.2019 17:00:00 13,3 10,6 24 13 48 26 S 1012,1 13 0,3
09.12.2019 16:00:00 13,3 10,6 31 17 67 36 S 1012,7 4,8 0,3
09.12.2019 15:00:00 13,3 10,6 34 18 55 30 S 1013,5 4,8 0,5
09.12.2019 14:00:00 13,3 10,6 44 24 63 34 S 1015,1 4,8 0,3
09.12.2019 13:00:00 12,2 10,0 34 18 - - S 1016,2 4,8 0,5
09.12.2019 12:00:00 9,4 7,8 9 5 - - ESE 1018,5 4,8 2,0
09.12.2019 11:00:00 8,3 6,1 8 4 - - ESE 1020,7 0,8 3,6
09.12.2019 10:00:00 7,8 5,6 8 4 - - SE 1022,0 1,2 1,3
09.12.2019 09:00:00 7,2 5,0 5 3 - - S 1023,0 1,2 1,3
09.12.2019 08:00:00 5,6 3,3 13 7 - - SSE 1023,3 3,2 0,3
09.12.2019 07:00:00 5,6 2,2 8 4 - - SE 1023,9 4,8 0,0
09.12.2019 06:00:00 6,1 2,8 8 4 - - SW 1024,2 16 -
09.12.2019 05:00:00 7,2 2,8 21 11 - - SSW 1024,4 16 -
09.12.2019 04:00:00 6,7 2,2 34 18 - - SSW 1024,6 16 0,0
09.12.2019 03:00:00 5,6 1,1 22 12 - - SSW 1025,2 16 -
09.12.2019 02:00:00 6,1 0,6 24 13 - - SSW 1025,7 16 -
09.12.2019 01:00:00 6,1 0,0 31 17 - - SSW 1025,8 16 0,0
09.12.2019 00:00:00 5,0 -1,1 28 15 - - SW 1026,5 16 -
08.12.2019 23:00:00 4,4 -1,1 21 11 - - SW 1027,5 16 -
08.12.2019 22:00:00 3,3 -1,7 18 10 - - SSW 1027,7 16 0,0
08.12.2019 21:00:00 2,2 -3,3 21 11 - - SW 1028,6 16 -
08.12.2019 20:00:00 2,2 -3,9 21 11 - - SSW 1029,2 16 -
08.12.2019 19:00:00 2,2 -4,4 22 12 - - SW 1029,7 16 0,0
08.12.2019 18:00:00 2,2 -5,6 16 9 - - SSW 1030,3 16 -
08.12.2019 17:00:00 2,2 -6,1 18 10 - - S 1030,9 16 -
08.12.2019 16:00:00 2,2 -6,7 21 11 - - SSW 1030,9 16 0,0
08.12.2019 15:00:00 2,2 -9,4 21 11 - - SW 1030,8 16 -
08.12.2019 14:00:00 2,2 -12,2 22 12 - - SSW 1030,9 16 -
08.12.2019 13:00:00 2,2 -12,2 18 10 - - SSW 1031,5 16 0,0
08.12.2019 12:00:00 1,1 -11,7 13 7 - - SSW 1032,4 16 -
08.12.2019 11:00:00 0,0 -11,1 18 10 - - SW 1033,5 16 -
08.12.2019 10:00:00 -1,1 -11,1 8 4 - - SW 1034,1 16 0,0
08.12.2019 09:00:00 -3,3 -9,4 8 4 - - SSW 1034,4 16 -
08.12.2019 08:00:00 -4,4 -9,4 5 3 - - S 1034,3 16 -
08.12.2019 07:00:00 -4,4 -11,1 5 3 - - - 1034,1 16 0,0
08.12.2019 06:00:00 -4,4 -11,1 8 4 - - NW 1033,3 16 -
08.12.2019 05:00:00 -5,0 -11,1 9 5 - - WNW 1032,8 16 -
08.12.2019 04:00:00 -4,4 -11,1 15 8 - - WNW 1033,0 16 0,0
08.12.2019 03:00:00 -3,9 -11,1 16 9 - - WNW 1032,9 16 -
08.12.2019 02:00:00 -3,9 -11,1 11 6 - - WNW 1032,6 16 -
08.12.2019 01:00:00 -2,8 -11,1 11 6 - - NW 1032,1 16 0,0
08.12.2019 00:00:00 -2,8 -11,1 13 7 - - WNW 1031,8 16 -
07.12.2019 23:00:00 -2,8 -10,6 13 7 - - WNW 1031,7 16 -
07.12.2019 22:00:00 -2,2 -10,6 11 6 - - WNW 1031,5 16 0,0
07.12.2019 21:00:00 -1,7 -11,1 15 8 - - WNW 1031,0 16 -

tt = temperature
td = dewpoint
ff = wind speed
fx = gusts
dd = wind direction
ppp = reduced air pressure
vv = visibility
rr = precipitation

Next stations